Weather History for Lone Rock, WI

Change the Weather History Date:

Wednesday, January 2, 2013

  Actual Average Record
Temperature  
Mean Temperature 14 °F -  
Max Temperature 21 °F 27 °F 46 °F (1998)
Min Temperature 8 °F 12 °F -17 °F (2014)
Degree Days  
Heating Degree Days 50    
Moisture  
Dew Point 8 °F    
Average Humidity 70    
Maximum Humidity 80    
Minimum Humidity 57    
Precipitation  
Precipitation 0.00 in - - ()
Sea Level Pressure  
Sea Level Pressure 30.10 in    
Wind  
Wind Speed 2 mph (SSW)    
Max Wind Speed 8 mph    
Max Gust Speed -    
Visibility 9 miles    
Events      
Averages and records for this station are not official NWS values.
T = Trace of Precipitation, MM = Missing Value Source: NWS Daily Summary

Daily Weather History Graph

Daily Weather History Graph

Search for Another Location

Airport:

Trip Planner

Search our weather history database for the weather conditions in past years. The results will help you decide how hot, cold, wet, or windy it might be!

Date:

Astronomy

Jan. 02, 2013 Rise Set
Actual Time 7:32 AM CST 4:37 PM CST
Civil Twilight 7:00 AM CST 5:09 PM CST
Nautical Twilight 6:24 AM CST 5:45 PM CST
Astronomical Twilight 5:50 AM CST 6:19 PM CST
Moon 10:19 PM CST (1/2) 10:05 AM CST (1/2)
Length of Visible Light 10h 09m
Length of Day
9h 04m
Waning Gibbous, 75% of the Moon is Illuminated
Jan 2
Waning Gibbous
Jan 4
Last Quarter
Jan 11
New
Jan 18
First Quarter
Jan 26
Full

Hourly Weather History & Observations

Time (CST) Temp. Windchill Dew Point Humidity Pressure Visibility Wind Dir Wind Speed Gust Speed Precip Events Conditions
12:56 AM 12.9 °F - 3.9 °F 67% 30.16 in 10.0 mi Calm Calm - N/A   Overcast
1:56 AM 12.9 °F - 6.1 °F 74% 30.16 in 10.0 mi Calm Calm - N/A   Overcast
3:56 AM 15.1 °F - 8.1 °F 74% 30.15 in 10.0 mi Calm Calm - N/A   Overcast
4:56 AM 15.1 °F - 9.0 °F 77% 30.14 in 10.0 mi Calm Calm - N/A   Overcast
5:53 AM 12.2 °F - 6.8 °F 79% 30.10 in 10.0 mi Calm Calm - N/A   Mostly Cloudy
5:56 AM 12.0 °F - 6.1 °F 77% 30.14 in 10.0 mi Calm Calm - N/A   Mostly Cloudy
6:26 AM 12.2 °F - 6.8 °F 79% 30.11 in 10.0 mi Calm Calm - N/A   Mostly Cloudy
6:52 AM 12.2 °F 4.3 °F 3.2 °F 67% 30.11 in 10.0 mi South 4.6 mph - N/A   Scattered Clouds
6:56 AM 10.9 °F 1.4 °F 3.0 °F 70% 30.14 in 10.0 mi South 5.8 mph - N/A   Scattered Clouds
7:09 AM 10.4 °F 2.2 °F 3.2 °F 73% 30.10 in 10.0 mi SSE 4.6 mph - N/A   Mostly Cloudy
7:56 AM 12.0 °F - 1.0 °F 61% 30.14 in 10.0 mi Calm Calm - N/A   Overcast
8:17 AM 10.4 °F - -0.4 °F 62% 30.11 in 10.0 mi Calm Calm - N/A   Scattered Clouds
8:56 AM 8.1 °F - -0.9 °F 67% 30.14 in 10.0 mi Calm Calm - N/A   Clear
9:56 AM 10.0 °F 0.4 °F 1.0 °F 67% 30.13 in 10.0 mi East 5.8 mph - N/A   Clear
10:56 AM 15.1 °F - 5.0 °F 64% 30.11 in 10.0 mi Calm Calm - N/A   Clear
11:56 AM 19.0 °F 11.1 °F 6.1 °F 57% 30.09 in 10.0 mi SSW 5.8 mph - N/A   Clear
12:56 PM 19.0 °F 9.0 °F 8.1 °F 62% 30.06 in 9.0 mi South 8.1 mph - N/A   Mostly Cloudy
1:56 PM 19.9 °F 11.1 °F 10.0 °F 65% 30.05 in 8.0 mi SSW 6.9 mph - N/A   Overcast
2:56 PM 19.9 °F 13.4 °F 10.0 °F 65% 30.05 in 8.0 mi South 4.6 mph - N/A   Clear
3:56 PM 19.9 °F 11.1 °F 10.9 °F 68% 30.06 in 7.0 mi South 6.9 mph - N/A   Mostly Cloudy
4:56 PM 21.0 °F 14.6 °F 12.0 °F 68% 30.07 in 8.0 mi SSW 4.6 mph - N/A   Overcast
5:56 PM 19.0 °F 13.9 °F 12.0 °F 74% 30.09 in 8.0 mi SSW 3.5 mph - N/A   Overcast
6:56 PM 21.0 °F - 12.0 °F 68% 30.09 in 8.0 mi Calm Calm - N/A   Overcast
7:56 PM 19.9 °F - 12.9 °F 74% 30.09 in 7.0 mi Calm Calm - N/A   Overcast
8:56 PM 21.0 °F - 12.9 °F 71% 30.08 in 7.0 mi Calm Calm - N/A   Overcast
9:07 PM 21.2 °F - 14.0 °F 74% 30.05 in 7.0 mi Calm Calm - N/A   Overcast
9:56 PM 21.0 °F - 14.0 °F 74% 30.08 in 7.0 mi Calm Calm - N/A   Overcast
10:56 PM 21.0 °F 16.2 °F 15.1 °F 78% 30.09 in 6.0 mi West 3.5 mph - N/A   Haze
11:19 PM 21.2 °F 13.6 °F 15.8 °F 80% 30.06 in 6.0 mi West 5.8 mph - N/A   Haze
11:56 PM 21.0 °F 13.4 °F 15.1 °F 78% 30.08 in 6.0 mi West 5.8 mph - N/A   Haze